Regional Weather Roundup
Issued by NWS Northern Indiana

Home | Current Version | Previous Version | Graphics & Text | Print | Product List | Glossary On
Versions: 1 2 3 4 5 6 7 8 9 10 11 12 13 14 15 16 17 18 19 20 21 22 23 24 25 26 27 28 29 30 31 32 33 34 35 36 37 38 39 40 41 42 43 44 45 46 47 48 49 50
000
ASUS43 KIWX 290600
RWRIWX

KIWX WEATHER ROUNDUP
NATIONAL WEATHER SERVICE NORTHERN INDIANA
200 AM EDT SUN MAR 29 2015

NOTE: "FAIR" INDICATES FEW OR NO CLOUDS BELOW 12,000 FEET WITH NO
SIGNIFICANT WEATHER AND/OR OBSTRUCTIONS TO VISIBILITY.

* THESE STATIONS ARE NOT UNDER NWS QUALITY CONTROL. THEY ALSO MAY NOT
  REPORT WEATHER SUCH AS PRECIPITATION OR FOG.

INZ001>027-290700-
NORTHERN INDIANA

CITY           SKY/WX    TMP DP  RH WIND       PRES   REMARKS
GARY*          CLEAR     26  11  53 SE5       30.29F WCI  21
KNOX*            N/A     21   9  58 SE5       30.29F WCI  15
SOUTH BEND     CLEAR     23  14  68 SE3       30.29F
6HR MIN TEMP:  21; 6HR MAX TEMP:  29;

GOSHEN         CLEAR     22  16  78 S3        30.30S
6HR MIN TEMP:  21; 6HR MAX TEMP:  33;

WARSAW*        CLEAR     19  14  79 CALM      30.30S
ANGOLA*        CLEAR     19  12  73 CALM      30.29F
FORT WAYNE     CLEAR     23  16  74 S7        30.32S WCI  15
6HR MIN TEMP:  23; 6HR MAX TEMP:  32;

PERU/GRISSOM   CLEAR     25  16  70 S6        30.30F WCI  18
6HR MIN TEMP:  24; 6HR MAX TEMP:  31;


$$
INZ028>050-290700-
CENTRAL INDIANA

CITY           SKY/WX    TMP DP  RH WIND       PRES   REMARKS
LAFAYETTE      CLEAR     27  15  61 SE3       30.32S
6HR MIN TEMP:  25; 6HR MAX TEMP:  34;

KOKOMO*          N/A     25  18  74 S6        30.32S WCI  18
6HR MIN TEMP:  25; 6HR MAX TEMP:  34;

MUNCIE*        CLEAR     25  14  63 S5        30.32F WCI  19
6HR MIN TEMP:  25; 6HR MAX TEMP:  33;

INDIANAPOLIS   CLEAR     26  13  57 SE6       30.32S WCI  19
6HR MIN TEMP:  26; 6HR MAX TEMP:  34;


$$
MIZ043>046-050>051-056>058-064>065-071>073-077>080-290700-
SOUTHWEST LOWER MICHIGAN

CITY           SKY/WX    TMP DP  RH WIND       PRES   REMARKS
BATTLE CREEK   CLEAR     22  11  62 S3        30.28S
6HR MIN TEMP:  20; 6HR MAX TEMP:  33;

BENTON HARBOR  CLEAR     19  11  70 CALM      30.28F
6HR MIN TEMP:  14; 6HR MAX TEMP:  25;

COLDWATER*     CLEAR     19  14  82 CALM      30.28S
6HR MIN TEMP:  19; 6HR MAX TEMP:  31;

HILLSDALE*     CLEAR     20  11  67 CALM      30.27S
6HR MIN TEMP:  20; 6HR MAX TEMP:  32;

HOLLAND        CLEAR     21  11  65 S6        30.27F WCI  13
6HR MIN TEMP:  20; 6HR MAX TEMP:  27;

GRAND RAPIDS   CLEAR     20  10  65 S10       30.26F WCI   9
6HR MIN TEMP:  17; 6HR MAX TEMP:  30;

KALAMAZOO      CLEAR     23  14  68 S5        30.28F WCI  17
6HR MIN TEMP:  21; 6HR MAX TEMP:  33;

STURGIS*       CLEAR     21  12  68 CALM      30.28S
THREE RIVERS*  FAIR      22  17  82 CALM      30.30S

$$
OHZ001>008-015>018-024>025-290700-
NORTHWEST OHIO

CITY           SKY/WX    TMP DP  RH WIND       PRES   REMARKS
DEFIANCE       CLEAR     24  15  68 S3        30.32F
6HR MIN TEMP:  23; 6HR MAX TEMP:  34;

FINDLAY        FAIR      24  15  68 S5        30.32S WCI  18
6HR MIN TEMP:  23; 6HR MAX TEMP:  31;

TOLEDO EXPRESS CLEAR     25  13  60 SW5       30.30F WCI  19
6HR MIN TEMP:  23; 6HR MAX TEMP:  32;

TOLEDO METCALF CLEAR     23  14  68 SW6       30.32F WCI  16
6HR MIN TEMP:  23; 6HR MAX TEMP:  32;

LIMA           CLEAR     24  16  71 S6        30.32S WCI  17
6HR MIN TEMP:  24; 6HR MAX TEMP:  32;


$$
AND FOR LAKE MICHIGAN COASTAL AND OPEN LAKE BUOY OBSERVATIONS

STATION/POSITION TEMP    WIND        PRES    VSBY  WAVE
                 AIR SEA DIR/SP/G                  HT/PER
                 (F)     (DEG/KT/KT) (MB)    (MI)  (FT/S)
CALUMET HARBOR    27     170/  5/  7 1024.0F
MICHIGAN CITY     24     120/  8/ 10   N/A
BURNS HARBOR      27     170/  9/ 12 1025.7F
SAINT JOSEPH      22     120/  3/  8 1025.4F

$$
&&


USA.gov is the U.S. government's official web portal to all federal, state and local government web resources and services.